Weather History for KBDR - December, 2012

Change the Weather History Date:

Saturday, December 22, 2012

  Actual Average Record
Temperature  
Mean Temperature 38 °F 33 °F  
Max Temperature 40 °F 40 °F 60 °F (2013)
Min Temperature 35 °F 26 °F 6 °F (1989)
Degree Days  
Heating Degree Days 27 32  
Month to date heating degree days 499 624  
Since 1 July heating degree days 1415 1598  
Cooling Degree Days 0 0  
Month to date cooling degree days 0 0  
Year to date cooling degree days 1075 825  
Moisture  
Dew Point 25 °F    
Average Humidity 63    
Maximum Humidity 82    
Minimum Humidity 44    
Precipitation  
Precipitation T in 0.11 in 1.34 in (1972)
Month to date precipitation 2.83 2.42  
Year to date precipitation 39.50 41.83  
Snow  
Snow T in 0.10 in 4.00 in (1955)
Month to date snowfall T 3.0  
Since 1 July snowfall 8.4 3.7  
Snow Depth -    
Sea Level Pressure  
Sea Level Pressure 29.51 in    
Wind  
Wind Speed 17 mph (West)    
Max Wind Speed 32 mph    
Max Gust Speed 41 mph    
Visibility 10 miles    
Events      
T = Trace of Precipitation, MM = Missing Value Source: NWS Daily Summary

Daily Weather History Graph

Daily Weather History Graph

Search for Another Location

Airport or City:

Trip Planner

Search our weather history database for the weather conditions in past years. The results will help you decide how hot, cold, wet, or windy it might be!

Date:

Astronomy

Dec. 22, 2012 Rise Set
Actual Time 7:15 AM EST 4:27 PM EST
Civil Twilight 6:43 AM EST 4:58 PM EST
Nautical Twilight 6:09 AM EST 5:33 PM EST
Astronomical Twilight 5:35 AM EST 6:07 PM EST
Moon 12:45 PM EST (12/22) 1:56 AM EST (12/22)
Length of Visible Light 10h 14m
Length of Day
9h 12m
Waxing Gibbous, 73% of the Moon is Illuminated
Dec 22
Waxing Gibbous
Dec 28
Full
Jan 4
Last Quarter
Jan 11
New
Jan 18
First Quarter

Hourly Weather History & Observations

Time (EST) Temp. Windchill Dew Point Humidity Pressure Visibility Wind Dir Wind Speed Gust Speed Precip Events Conditions
12:52 AM 39.0 °F 31.4 °F 28.9 °F 67% 29.30 in 10.0 mi WSW 12.7 mph 21.9 mph N/A   Overcast
3:52 AM 37.0 °F 28.1 °F 32.0 °F 82% 29.32 in 10.0 mi WSW 15.0 mph 21.9 mph N/A   Overcast
4:52 AM 37.0 °F 28.1 °F 32.0 °F 82% 29.34 in 10.0 mi WSW 15.0 mph 24.2 mph N/A   Overcast
5:52 AM 37.0 °F 28.9 °F 32.0 °F 82% 29.36 in 10.0 mi WSW 12.7 mph 24.2 mph N/A   Overcast
6:17 AM 37.4 °F 28.9 °F 33.8 °F 87% 29.37 in 10.0 mi WSW 13.8 mph 21.9 mph N/A   Overcast
6:24 AM 37.4 °F 29.3 °F 33.8 °F 87% 29.37 in 10.0 mi WSW 12.7 mph 24.2 mph N/A   Overcast
6:36 AM 37.4 °F 29.8 °F 33.8 °F 87% 29.38 in 10.0 mi WSW 11.5 mph 21.9 mph N/A   Mostly Cloudy
6:45 AM 37.4 °F 29.3 °F 32.0 °F 81% 29.38 in 10.0 mi West 12.7 mph 21.9 mph N/A   Mostly Cloudy
8:52 AM 37.0 °F 27.0 °F 21.0 °F 52% 29.47 in 10.0 mi WNW 18.4 mph 32.2 mph N/A   Overcast
11:52 AM 37.9 °F 28.5 °F 21.9 °F 53% 29.52 in 10.0 mi WNW 17.3 mph 31.1 mph N/A   Overcast
12:52 PM 37.0 °F 27.0 °F 24.1 °F 59% 29.51 in 10.0 mi West 18.4 mph 28.8 mph N/A   Overcast
1:52 PM 37.9 °F 27.3 °F 19.0 °F 47% 29.52 in 10.0 mi WNW 21.9 mph 34.5 mph N/A   Overcast
3:52 PM 37.0 °F 27.0 °F 19.0 °F 48% 29.59 in 10.0 mi WNW 18.4 mph 38.0 mph N/A   Overcast
4:52 PM 36.0 °F 24.7 °F 21.0 °F 55% 29.62 in 10.0 mi WNW 21.9 mph 32.2 mph N/A   Overcast
6:52 PM 36.0 °F 26.7 °F 18.0 °F 48% 29.68 in 10.0 mi WNW 15.0 mph 41.4 mph N/A   Scattered Clouds
7:52 PM 36.0 °F 26.3 °F 16.0 °F 44% 29.72 in 10.0 mi WNW 16.1 mph 33.4 mph N/A   Clear
8:52 PM 35.1 °F 24.1 °F 17.1 °F 48% 29.73 in 10.0 mi WNW 19.6 mph 29.9 mph N/A   Clear
10:52 PM 36.0 °F 26.3 °F 18.0 °F 48% 29.76 in 10.0 mi WNW 16.1 mph 28.8 mph N/A   Partly Cloudy
11:52 PM 36.0 °F 29.6 °F 18.0 °F 48% 29.77 in 10.0 mi West 8.1 mph 17.3 mph N/A   Mostly Cloudy